User: anonymous   Login
Location: Unspecified
(0.0000°N, 0.0000°E)
Time: 16:46:40
(UTC+01:00)
Language:

DELTA 2 R/B (1) - Orbit

View from above orbital plane
View from above orbital plane
View from above satellite
View from above satellite

Ground track
Ground track

The orbit data is extracted from the following two-line orbital elements,

1 27665U 03005C   14353.26507997  .00000324  00000-0  16241-3 0  1881
2 27665 039.5768 068.0561 0008113 110.7895 272.3156 14.28270160620652
Epoch (UTC): 19 December 2014 06:21:42
Eccentricity: 0.0008113
inclination: 39.5768°
perigee height: 792 km
apogee height: 803 km
right ascension of ascending node: 68.0561°
argument of perigee: 110.7895°
revolutions per day: 14.28270160
mean anomaly at epoch: 272.3156°
orbit number at epoch: 62065

The dashed part of the orbit path shows where the satellite is in the earth's shadow,  

DLR